Location: Kerguer�zec
(48.4509°N, 4.7600°W)
Time: 22:19:42
(UTC+00:00)

Cosmos 1607 - Pass Details

Date: 09 April 2020
Orbit: 917 x 985 km, 65.0° (Epoch: 26 May)

Event Time Altitude Azimuth Distance (km) Brightness Sun altitude
Exits shadow 23:12:03 60° 35° (NE) 1,069 4.2 -31.5°
Drops below altitude 10° 23:17:04 10° 38° (NE) 2,677 6.6 -31.8°
Sets 23:19:39 0° 39° (NE) 3,636 7.4 -32.0°
